Regional Weather Roundup
Issued by NWS

Home | Current Version | Previous Version | Graphics & Text | Print | Product List | Glossary On
Versions: 1 2 3 4 5 6 7 8 9 10 11 12 13 14 15 16 17 18 19 20 21 22 23 24 25 26 27
000
ASUS45 KSLC 012110
RWRUT

UTAH REGIONAL WEATHER ROUNDUP
NATIONAL WEATHER SERVICE SALT LAKE CITY UT
300 PM MDT SUN MAY 01 2016

UTZ001>011-023>025-012200-

NORTHERN UTAH

CITY           SKY/WX    TMP DP  RH WIND       PRES   REMARKS
BRIGHAM CITY   PTSUNNY   57  20  23 E26G45    30.06F
HILL AFB       MOSUNNY   55  26  32 E30G41    30.05R
LOGAN          MOSUNNY   58  25  28 E25G38    30.12F
OGDEN          PTSUNNY   58  25  28 E23G38    30.05F
PROVO AIRPORT  MOSUNNY   61  28  29 NW15      30.03S
SALT LAKE CITY MOSUNNY   63  24  22 NE13G24   30.03F
VERNAL         PTSUNNY   53  24  32 NE18G24   30.11S
WENDOVER       SUNNY     57  30  35 E18       30.08F
HEBER CITY     MOSUNNY   57  25  28 E8        30.04S

$$

UTZ012>022-026-027-012200-

SOUTHERN/CENTRAL UTAH

CITY           SKY/WX    TMP DP  RH WIND       PRES   REMARKS
BLANDING       CLOUDY    46  41  81 SW7       30.12S
BRYCE CANYON   CLOUDY    44  31  60 SE10      30.07R
CEDAR CITY     CLOUDY    56  34  43 N6        29.99S
DELTA          CLOUDY    59  27  29 NE5       30.01S
HANKSVILLE     PTSUNNY   57  32  38 SE12G20   30.07R
MILFORD        MOSUNNY   61  31  32 VRB6      29.99F
MOAB/CYNLANDS  CLOUDY    59  29  31 S8        30.00F
PRICE          PTSUNNY   56  24  29 NE14G21   30.07S
ST GEORGE      PTCLDY    66  36  32 W3        29.95S

$$

REGIONAL REPORTS     COLORADO/ARIZONA

CITY           SKY/WX    TMP DP  RH WIND       PRES   REMARKS
CRAIG, CO      SUNNY     56  24  29 E12       30.06F
GRAND JUNCTION CLOUDY    59  30  33 SW5       30.02S
RIFLE          CLOUDY    62  25  24 NE10      29.99F
MONTROSE       CLOUDY    54  25  32 VRB3      30.04S
CORTEZ         CLOUDY    52  37  56 SE20G25   30.07R
PAGE, AZ       PTSUNNY   53  37  54 NE6       30.04S
GRAND CANYON   PTSUNNY   51  35  54 NE13      30.04S
KINGMAN        CLOUDY    65  38  36 S5        29.94S
FLAGSTAFF      CLOUDY    42  38  85 CALM      30.03S

$$

REGIONAL REPORTS    NEVADA/IDAHO/WYOMING

CITY           SKY/WX    TMP DP  RH WIND       PRES   REMARKS
LAS VEGAS, NV  MOSUNNY   74  34  23 VRB7      29.88S
ELY            CLOUDY    50  30  46 N17       30.06R
ELKO           CLOUDY    58  31  35 NE17G23   30.05S
POCATELLO, ID  MOSUNNY   64  26  23 NE15      30.11F
BURLEY         MOSUNNY   60  31  33 E17G23    30.08F
EVANSTON, WY   CLOUDY    44  22  41 E31G45    30.14F
ROCK SPRINGS   MOSUNNY   43  22  43 NE22G36   30.21S
KEMMERER       CLOUDY    43  19  39 E24G37    30.20F

$$




USA.gov is the U.S. government's official web portal to all federal, state and local government web resources and services.